[[{"header":{"parameterUnit":"m.s-1","parameterCategory":2,"la1":30.2991,"la2":30.254,"lo1":-89.0895,"lo2":-89.0444,"dy":0.0017,"dx":0.0017,"nx":28,"ny":28,"refTime":"2023-03-29T21:00:00:Z","depth":"0","parameterNumber":2,"parameterNumberName":"U-component_of_CURRENTS"},"data":[0,0,0,0,0,0,0,0,0,0,0,0,0,0,0,0,0,0,0,0,0,0,0,0,0,0,0,0,0,0,0,0,0,0,0,0,0,0,0,0,0,0,0,0,0,0,0,0,0,0,0,0,0,0,0,0,0,0,0.2581,0.2581,0,0.2645,0.2646,0.2647,0.2694,0.2694,0.2695,0.2695,0.2702,0.2702,0.2702,0,0,0,0,0,0,0,0,0,0,0,0,0,0.2542,0.2542,0.2581,0.2581,0.2582,0.2645,0.2646,0.2647,0.2694,0.2694,0.2695,0.2696,0.2702,0.2702,0.2702,0,0,0,0,0,0,0,0,0,0,0,0,0,0.2577,0.2542,0.258,0.2614,0.2618,0.2645,0.2646,0.2647,0.2694,0.2694,0.2695,0.2696,0.2702,0.2702,0.2702,0.2686,0,0,0.2701,0.27,0,0,0,0,0,0,0,0,0.2575,0.2579,0.2608,0.2612,0.2616,0.2663,0.2635,0.2657,0.2694,0.2664,0.2695,0.2696,0.2684,0.2685,0.2695,0.2686,0.2686,0.2701,0.27,0.27,0.27,0,0,0,0,0,0,0,0.2573,0.2576,0.2606,0.2609,0.2614,0.2641,0.2646,0.264,0.2668,0.2667,0.267,0.2679,0.2685,0.2696,0.2696,0.2686,0.2701,0.27,0.27,0.27,0.2722,0.2723,0,0,0,0,0,0,0.2563,0.2574,0.2604,0.2608,0.2598,0.2641,0.2647,0.2647,0.2669,0.2674,0.2678,0.268,0.2696,0.2696,0.2696,0.2723,0.27,0.27,0.27,0.2721,0.2722,0.2723,0,0,0,0,0,0,0.2562,0.2565,0.2601,0.2593,0.26,0.2641,0.264,0.2647,0.2665,0.2678,0.2682,0.2689,0.2697,0.2697,0.2709,0.2722,0.27,0.2699,0.272,0.2722,0.2723,0.2747,0,0,0,0,0,0,0.256,0.2563,0.2563,0.2592,0.26,0.2627,0.264,0.2648,0.2669,0.2673,0.2688,0.269,0.2697,0.271,0.2709,0.2721,0.2699,0.2719,0.2721,0.2722,0.2746,0.2749,0.2752,0,0,0,0,0,0.2558,0.256,0.2562,0.2566,0.2596,0.2628,0.2634,0.2665,0.2669,0.2682,0.2696,0.269,0.2719,0.271,0.2708,0.2721,0.2719,0.2721,0.2722,0.2744,0.2749,0.2752,0,0,0,0,0,0,0.2546,0.2565,0.2569,0.2576,0.2602,0.2636,0.2649,0.2664,0.2685,0.2686,0.2695,0.2698,0.2719,0.2712,0.2702,0.2733,0.2719,0.2721,0.2736,0.274,0.2744,0.2764,0.2699,0,0,0,0,0,0.2539,0.2545,0.2569,0.2577,0.2585,0.2613,0.2628,0.2649,0.2671,0.2682,0.2692,0.2704,0.2723,0.2726,0.274,0.2744,0.279,0.2753,0.2757,0.2759,0.2777,0.2844,0.2856,0.2729,0.2729,0.2729,0,0,0.2535,0.2549,0.2551,0.2575,0.2592,0.2608,0.2624,0.2649,0.2669,0.2675,0.2698,0.2716,0.2729,0.2752,0.2759,0.2747,0.2827,0.2762,0.2764,0.278,0.2848,0.286,0.2871,0.273,0.273,0.273,0,0,0.2533,0.254,0.2543,0.2561,0.259,0.261,0.2615,0.2647,0.2668,0.2687,0.271,0.274,0.2744,0.2777,0.2788,0.2814,0.2848,0.2809,0.2836,0.2901,0.2913,0.2923,0.3032,0.3052,0.2804,0.2804,0.2804,0,0.2527,0.2536,0.2552,0.2562,0.2582,0.2607,0.2623,0.2643,0.2679,0.2707,0.2695,0.2758,0.2762,0.2818,0.2833,0.2823,0.2881,0.2817,0.2908,0.2919,0.2929,0.3038,0.306,0.2806,0.2806,0.2806,0.2805,0,0.253,0.2539,0.2544,0.2563,0.2585,0.2607,0.2635,0.2662,0.268,0.271,0.2768,0.2789,0.2834,0.2836,0.2839,0.2917,0.2945,0.291,0.2899,0.2944,0.3056,0.3078,0.2808,0.2807,0.2807,0.2807,0,0,0.2514,0.254,0.2541,0.256,0.2592,0.2616,0.2646,0.2698,0.274,0.2765,0.2829,0.2861,0.2888,0.2905,0.2921,0.2971,0.3097,0.2971,0.2974,0.3085,0.3289,0.3235,0.3255,0.3077,0.308,0.3083,0.3351,0,0.2515,0.2536,0.2551,0.2583,0.2602,0.2638,0.2671,0.2721,0.2764,0.2829,0.2871,0.293,0.2908,0.2942,0.299,0.3074,0.3152,0.3031,0.3225,0.3232,0.3181,0.3276,0.3101,0.3317,0.3372,0.3376,0.3379,0,0.2513,0.2536,0.2561,0.2614,0.2625,0.2648,0.273,0.2765,0.2853,0.289,0.2956,0.2994,0.3093,0.305,0.3229,0.3156,0.3232,0.3289,0.3299,0.3255,0.3218,0.3274,0.3356,0.3242,0.3413,0.341,0.3408,0,0.2516,0.2544,0.2573,0.2588,0.2644,0.2674,0.271,0.2789,0.2843,0.2944,0.3005,0.3102,0.3176,0.327,0.3366,0.3319,0.3565,0.3511,0.3551,0.3551,0.3443,0.3426,0.3435,0.365,0.365,0.3649,0.3648,0,0.2527,0.2551,0.2575,0.26,0.2647,0.2681,0.2752,0.2804,0.2897,0.2971,0.3041,0.3123,0.3232,0.3363,0.3433,0.3574,0.3626,0.3599,0.3617,0.3448,0.3429,0.3354,0.3326,0.3659,0.3657,0.3655,0.3653,0,0.254,0.2551,0.259,0.2639,0.2653,0.2692,0.2769,0.2822,0.2911,0.3015,0.3055,0.3194,0.3347,0.3465,0.3647,0.3671,0.3697,0.3829,0.3644,0.3633,0.3515,0.3496,0.3473,0.3375,0.3936,0.3936,0.3936,0,0.255,0.257,0.2613,0.2633,0.2656,0.2708,0.2742,0.2822,0.2876,0.3046,0.3096,0.3276,0.3378,0.3641,0.3701,0.3855,0.3725,0.379,0.3642,0.3519,0.3513,0.3369,0.3277,0.3547,0.3544,0.3541,0.3539,0,0.2587,0.2598,0.2634,0.2655,0.2684,0.2712,0.2764,0.2805,0.2901,0.2994,0.3118,0.3221,0.344,0.3496,0.3678,0.3734,0.3575,0.3744,0.3654,0.3252,0.3062,0.297,0.34,0.3518,0.352,0.3521,0.3523,0.3523,0.2617,0.2632,0.2659,0.2677,0.2695,0.269,0.2687,0.2748,0.2814,0.2904,0.3057,0.3161,0.3297,0.3503,0.3526,0.3433,0.3461,0.3347,0.3363,0.325,0.3038,0.344,0.3527,0.3529,0.3531,0.3533,0.3534,0,0.2639,0.2649,0.2672,0.2668,0.265,0.2664,0.2674,0.2639,0.2663,0.2796,0.2892,0.3022,0.3075,0.314,0.3145,0.3071,0.2908,0.2996,0.2739,0.2689,0.309,0.2946,0.286,0.286,0.286,0.286,0.286,0.286,0.2659,0.2669,0.2658,0.2613,0.2594,0.2497,0.2471,0.244,0.248,0.2523,0.2588,0.2722,0.287,0.2924,0.2813,0.2752,0.2549,0.2447,0.2478,0.2737,0.2768,0.2797,0.265,0.2504,0.2503,0.1895,0.1891,0.1888]},{"header":{"parameterUnit":"m.s-1","parameterCategory":2,"la1":30.2991,"la2":30.254,"lo1":-89.0895,"lo2":-89.0444,"dy":0.0017,"dx":0.0017,"nx":28,"ny":28,"refTime":"2023-03-29T21:00:00:Z","depth":"0","parameterNumber":3,"parameterNumberName":"V-component_of_CURRENTS"},"data":[0,0,0,0,0,0,0,0,0,0,0,0,0,0,0,0,0,0,0,0,0,0,0,0,0,0,0,0,0,0,0,0,0,0,0,0,0,0,0,0,0,0,0,0,0,0,0,0,0,0,0,0,0,0,0,0,0,0,0.0248,0.0247,0,0.0193,0.0193,0.0192,0.015,0.0149,0.0149,0.0148,0.0031,0.0028,0.0026,0,0,0,0,0,0,0,0,0,0,0,0,0,0.0298,0.0298,0.0248,0.0247,0.0247,0.0194,0.0193,0.0192,0.015,0.0149,0.0149,0.0148,0.0032,0.0029,0.0025,0,0,0,0,0,0,0,0,0,0,0,0,0,0.0265,0.0298,0.0248,0.0218,0.0215,0.0194,0.0193,0.0192,0.015,0.0149,0.0148,0.0148,0.0033,0.0029,0.0025,0.0016,0,0,0.0013,0.0011,0,0,0,0,0,0,0,0,0.0267,0.0263,0.0223,0.022,0.0216,0.0177,0.0167,0.013,0.015,0.0176,0.0148,0.0147,0.0074,0.0066,0.006,0.0011,0.0006,0.0013,0.001,0.0009,0.0007,0,0,0,0,0,0,0,0.0269,0.0265,0.0228,0.0223,0.0218,0.0201,0.0196,0.016,0.013,0.0174,0.017,0.0162,0.0071,0.0064,0.0057,0.0004,0.0013,0.0009,0.0007,0.0005,-0.0057,-0.0057,0,0,0,0,0,0,0.0275,0.0267,0.0229,0.0226,0.0239,0.0201,0.0195,0.0191,0.0131,0.0122,0.0163,0.0161,0.0072,0.0062,0.0053,0.0051,0.0009,0.0005,0.0003,-0.0058,-0.0057,-0.0057,0,0,0,0,0,0,0.0276,0.0272,0.0232,0.0244,0.0238,0.0201,0.0197,0.019,0.0183,0.0124,0.0113,0.0162,0.007,0.0058,0.003,0.0046,0.0003,-0.0001,-0.0059,-0.0058,-0.0057,0.004,0,0,0,0,0,0,0.0278,0.0273,0.0277,0.0245,0.0237,0.0228,0.0197,0.019,0.0179,0.0175,0.0119,0.0107,0.0069,0.0036,0.0026,0.004,-0.0004,-0.006,-0.0058,-0.0057,0.0036,0.0045,0.0052,0,0,0,0,0,0.028,0.0291,0.0277,0.0273,0.0241,0.0229,0.0224,0.0196,0.018,0.0185,0.0147,0.0109,0.0037,0.0034,0.0022,0.0034,-0.0061,-0.0059,-0.0057,0.0033,0.0043,0.0052,0,0,0,0,0,0,0.0314,0.0287,0.0271,0.0272,0.0255,0.0222,0.0223,0.0202,0.0179,0.0174,0.0117,0.0104,0.0084,0.0046,0.0044,0.002,-0.0018,-0.0018,0.0055,0.0064,0.0072,0.0102,-0.0007,0,0,0,0,0,0.0323,0.0326,0.0294,0.0297,0.0289,0.0257,0.0249,0.0232,0.0204,0.0193,0.0153,0.0112,0.0082,0.0063,0.0028,0.0016,0.0003,0.0016,0.0024,0.0031,0.0047,0.004,0.0049,-0.0051,-0.0051,-0.0051,0,0,0.0335,0.0322,0.0322,0.0305,0.0288,0.0288,0.0251,0.0246,0.025,0.0183,0.0176,0.0135,0.0084,0.0072,0.0059,0.0042,0.0055,0.0033,0.0039,0.0052,0.0042,0.0052,0.0061,-0.005,-0.005,-0.0051,0,0,0.0364,0.0352,0.0362,0.0352,0.0333,0.0318,0.0319,0.029,0.0281,0.0267,0.0224,0.0199,0.0146,0.0122,0.01,0.0129,0.0095,0.0113,0.0179,0.0172,0.0181,0.0188,0.0202,0.021,0.012,0.012,0.012,0,0.0378,0.0388,0.0364,0.037,0.0372,0.0334,0.035,0.0336,0.0304,0.0312,0.0276,0.023,0.0174,0.0178,0.0181,0.0148,0.0147,0.0149,0.0184,0.0191,0.0197,0.021,0.0217,0.0125,0.0124,0.0124,0.0123,0,0.0409,0.0419,0.0427,0.0425,0.0426,0.0436,0.0414,0.042,0.0401,0.0387,0.0387,0.0324,0.0304,0.0276,0.023,0.0251,0.0239,0.0195,0.0167,0.0214,0.0223,0.023,0.0132,0.013,0.0128,0.0127,0,0,0.0434,0.0447,0.0449,0.0476,0.046,0.0477,0.0488,0.0502,0.0543,0.0494,0.0538,0.0465,0.0443,0.0418,0.0366,0.0348,0.0376,0.0296,0.0293,0.0322,0.0386,0.0338,0.0339,0.0341,0.0342,0.0343,0.0384,0,0.0466,0.051,0.0499,0.0553,0.0581,0.0566,0.0594,0.0605,0.0605,0.0638,0.0582,0.0593,0.0495,0.0502,0.0467,0.0401,0.0394,0.037,0.0326,0.0325,0.0285,0.0345,0.0318,0.0348,0.0389,0.039,0.0391,0,0.0497,0.0533,0.0591,0.0655,0.0666,0.0695,0.0768,0.0786,0.0809,0.0812,0.0807,0.0765,0.074,0.0647,0.0573,0.0567,0.0491,0.0429,0.0428,0.0354,0.0288,0.0302,0.0357,0.0217,0.0399,0.0399,0.0398,0,0.0558,0.0601,0.0666,0.068,0.0735,0.0779,0.0812,0.085,0.0904,0.0936,0.0983,0.093,0.093,0.0823,0.0675,0.0637,0.0595,0.0526,0.042,0.0417,0.0371,0.036,0.0293,0.0487,0.0487,0.0487,0.0487,0,0.061,0.0668,0.071,0.0755,0.0863,0.0865,0.0982,0.101,0.1069,0.1148,0.1088,0.1137,0.0972,0.0913,0.0757,0.0619,0.0661,0.0457,0.0428,0.0404,0.0396,0.025,0.0159,0.0488,0.0488,0.0488,0.0487,0,0.069,0.07,0.0796,0.0869,0.0901,0.0989,0.1095,0.1172,0.1219,0.1324,0.1343,0.1317,0.1232,0.1066,0.0906,0.0744,0.051,0.0538,0.0531,0.0498,0.0242,0.0158,0.0063,-0.0008,0.0442,0.0441,0.044,0,0.0741,0.0795,0.0898,0.0956,0.1002,0.1114,0.1187,0.1249,0.1325,0.1426,0.1479,0.1451,0.1423,0.1193,0.0902,0.0664,0.0503,0.0482,0.0383,0.0247,0.0132,0.0075,0.0018,0.0375,0.0373,0.0372,0.0372,0,0.0854,0.0886,0.0964,0.107,0.1157,0.1257,0.136,0.144,0.1507,0.1597,0.1664,0.166,0.1454,0.1199,0.0884,0.0687,0.0364,0.0452,0.0314,0.0083,0.0016,-0.0072,0.0343,0.0363,0.0364,0.0364,0.0365,0.0365,0.0938,0.1002,0.1072,0.1174,0.1266,0.1345,0.1419,0.1516,0.1628,0.1729,0.1756,0.1782,0.1466,0.102,0.076,0.0273,0.028,0.0119,0.0038,0.0002,-0.0105,0.0298,0.0268,0.0268,0.0269,0.0269,0.0269,0,0.0994,0.1043,0.1154,0.1243,0.132,0.1358,0.1483,0.1539,0.1636,0.1776,0.1831,0.1731,0.1301,0.0887,0.0243,-0.0071,-0.0191,-0.0239,-0.0326,-0.0359,0.0009,-0.0035,-0.0136,-0.0136,-0.0136,-0.0136,-0.0136,-0.0136,0.1022,0.1092,0.1126,0.123,0.1297,0.1365,0.1414,0.1522,0.1635,0.1759,0.1829,0.188,0.1592,0.0482,-0.0257,-0.0435,-0.0642,-0.0692,-0.0779,-0.0541,-0.0514,-0.0488,-0.0549,-0.0756,-0.0757,-0.111,-0.1114,-0.1117]}],[{"header":{"parameterUnit":"m.s-1","parameterCategory":2,"la1":30.2991,"la2":30.254,"lo1":-89.0895,"lo2":-89.0444,"dy":0.0017,"dx":0.0017,"nx":28,"ny":28,"refTime":"2023-03-29T21:00:00:Z","depth":"2","parameterNumber":2,"parameterNumberName":"U-component_of_CURRENTS"},"data":[0,0,0,0,0,0,0,0,0,0,0,0,0,0,0,0,0,0,0,0,0,0,0,0,0,0,0,0,0,0,0,0,0,0,0,0,0,0,0,0,0,0,0,0,0,0,0,0,0,0,0,0,0,0,0,0,0,0,0.2393,0.2394,0,0.2433,0.2433,0.2433,0.2471,0.2472,0.2473,0.2473,0.2499,0.2499,0.2499,0,0,0,0,0,0,0,0,0,0,0,0,0,0.2328,0.2328,0.2393,0.2394,0.2395,0.2433,0.2433,0.2434,0.2471,0.2472,0.2473,0.2474,0.2499,0.2499,0.2499,0,0,0,0,0,0,0,0,0,0,0,0,0,0.2356,0.2329,0.2393,0.2422,0.2425,0.2433,0.2433,0.2434,0.247,0.2472,0.2473,0.2474,0.2499,0.2499,0.2499,0.247,0,0,0.2498,0.2498,0,0,0,0,0,0,0,0,0.2355,0.2358,0.2417,0.242,0.2424,0.2453,0.242,0.2447,0.247,0.2448,0.2473,0.2475,0.2484,0.2485,0.2483,0.2472,0.2473,0.2498,0.2498,0.2498,0.2498,0,0,0,0,0,0,0,0.2353,0.2357,0.2404,0.2418,0.2422,0.2426,0.2431,0.2425,0.2454,0.245,0.2454,0.2466,0.2486,0.2483,0.2484,0.2473,0.2498,0.2498,0.2498,0.2498,0.2545,0.2547,0,0,0,0,0,0,0.2357,0.2355,0.2403,0.2406,0.2397,0.2426,0.2432,0.2438,0.2455,0.246,0.2465,0.2467,0.2483,0.2484,0.2485,0.2539,0.2498,0.2498,0.2497,0.2544,0.2546,0.2547,0,0,0,0,0,0,0.2355,0.236,0.2402,0.2385,0.2392,0.2426,0.2433,0.2438,0.2452,0.2467,0.2471,0.2475,0.2484,0.2486,0.2516,0.2537,0.2497,0.2497,0.2542,0.2545,0.2547,0.2591,0,0,0,0,0,0,0.2353,0.2359,0.2366,0.2385,0.2393,0.2423,0.2432,0.2438,0.2458,0.2462,0.2477,0.248,0.2485,0.2516,0.2516,0.2536,0.2497,0.2541,0.2543,0.2546,0.2588,0.2595,0.26,0,0,0,0,0,0.235,0.2356,0.2365,0.2372,0.24,0.2425,0.2428,0.2454,0.2458,0.2468,0.2492,0.248,0.2533,0.2517,0.2516,0.2537,0.2539,0.2543,0.2546,0.2585,0.2593,0.26,0,0,0,0,0,0,0.2327,0.2361,0.2372,0.2387,0.2412,0.2433,0.2446,0.2456,0.2478,0.2489,0.2493,0.2498,0.2536,0.2528,0.2511,0.2561,0.2535,0.2538,0.2566,0.2573,0.2579,0.2583,0.2497,0,0,0,0,0,0.2325,0.2348,0.2372,0.239,0.2398,0.2419,0.2432,0.2453,0.2476,0.2487,0.2501,0.252,0.2543,0.2553,0.257,0.2585,0.2607,0.26,0.2607,0.2612,0.2616,0.268,0.2693,0.2558,0.2558,0.2558,0,0,0.2323,0.2348,0.236,0.2389,0.2406,0.242,0.243,0.246,0.2483,0.2485,0.252,0.2541,0.2554,0.259,0.2604,0.2587,0.2664,0.2616,0.262,0.2621,0.2685,0.2698,0.271,0.256,0.2559,0.2559,0,0,0.2329,0.2348,0.2363,0.2383,0.2421,0.2434,0.2444,0.2473,0.2499,0.2529,0.2551,0.259,0.2602,0.2635,0.2646,0.269,0.2698,0.2693,0.2721,0.2784,0.2796,0.2806,0.286,0.2875,0.2691,0.2691,0.2691,0,0.233,0.2349,0.2372,0.2388,0.2416,0.2438,0.2461,0.2479,0.2522,0.2553,0.255,0.2607,0.2625,0.2675,0.2707,0.2704,0.274,0.269,0.2792,0.2803,0.2813,0.2866,0.2882,0.2694,0.2694,0.2693,0.2693,0,0.2342,0.2359,0.237,0.2402,0.243,0.2459,0.2492,0.2524,0.2551,0.2576,0.2635,0.2661,0.27,0.2713,0.2725,0.2805,0.2809,0.2797,0.2773,0.283,0.2882,0.2898,0.2698,0.2697,0.2696,0.2695,0,0,0.2345,0.2375,0.238,0.2403,0.2449,0.2476,0.2519,0.2572,0.2608,0.264,0.27,0.274,0.2758,0.2774,0.2794,0.2847,0.2961,0.2859,0.2861,0.2912,0.3108,0.3013,0.3021,0.2973,0.2976,0.2978,0.3119,0,0.2354,0.2389,0.2406,0.2447,0.2469,0.2513,0.2555,0.261,0.2649,0.2709,0.2747,0.2802,0.2777,0.2817,0.2863,0.2952,0.3004,0.2924,0.3046,0.3049,0.2957,0.3036,0.2755,0.2848,0.3134,0.3137,0.3139,0,0.2355,0.2389,0.2431,0.2489,0.2504,0.2532,0.2621,0.2662,0.2741,0.278,0.2824,0.2854,0.2946,0.2917,0.3051,0.3007,0.3063,0.3108,0.3115,0.3019,0.2984,0.2836,0.2866,0.3165,0.3163,0.3161,0.3159,0,0.236,0.2402,0.2446,0.2467,0.2531,0.2573,0.2616,0.269,0.2749,0.2837,0.2889,0.2957,0.3029,0.3096,0.3183,0.314,0.3339,0.3285,0.3239,0.3233,0.3011,0.298,0.3378,0.3378,0.3378,0.3377,0.3377,0,0.2373,0.2413,0.245,0.2479,0.2545,0.259,0.2663,0.2715,0.2808,0.2884,0.2927,0.2999,0.3084,0.3191,0.3239,0.33,0.3382,0.3264,0.327,0.3019,0.2988,0.3266,0.3251,0.3382,0.3381,0.338,0.3379,0,0.2391,0.2415,0.2465,0.2525,0.2546,0.2604,0.2697,0.2749,0.2829,0.2937,0.2982,0.3091,0.3205,0.3277,0.3421,0.3371,0.3445,0.3445,0.3142,0.3107,0.3278,0.3264,0.3386,0.3384,0.3382,0.3381,0.338,0,0.2403,0.2425,0.2483,0.2528,0.2564,0.2637,0.2688,0.2765,0.2822,0.2983,0.3043,0.3183,0.3229,0.3376,0.3341,0.3378,0.3471,0.3143,0.2982,0.3288,0.3283,0.3271,0.326,0.2719,0.2713,0.2708,0.2703,0,0.2439,0.2458,0.2511,0.2572,0.2629,0.2671,0.2743,0.2781,0.2882,0.2936,0.3037,0.3089,0.3185,0.3067,0.3108,0.3091,0.31,0.3032,0.3471,0.2748,0.2667,0.2659,0.2668,0.2656,0.2661,0.2664,0.2667,0.2669,0.2471,0.2522,0.2573,0.2631,0.2673,0.2687,0.2686,0.2748,0.2784,0.2805,0.2908,0.2844,0.2841,0.2706,0.2676,0.2653,0.2838,0.2703,0.2717,0.2737,0.2621,0.2541,0.2485,0.2488,0.2491,0.2494,0.2497,0,0.251,0.2578,0.263,0.2677,0.2669,0.2688,0.2705,0.2665,0.2642,0.262,0.2598,0.2273,0.2194,0.2255,0.2124,0.2121,0.2072,0.2063,0.1973,0.2021,0.2065,0.1911,0.1589,0.1586,0.1584,0.1581,0,0,0.256,0.2626,0.2641,0.264,0.2644,0.2562,0.2529,0.2488,0.2428,0.2199,0.2049,0.2065,0.2138,0.1792,0.177,0.1679,0.1835,0.1613,0.2339,0.228,0.232,0.2433,0.2252,0,0,0,0,0]},{"header":{"parameterUnit":"m.s-1","parameterCategory":2,"la1":30.2991,"la2":30.254,"lo1":-89.0895,"lo2":-89.0444,"dy":0.0017,"dx":0.0017,"nx":28,"ny":28,"refTime":"2023-03-29T21:00:00:Z","depth":"2","parameterNumber":3,"parameterNumberName":"V-component_of_CURRENTS"},"data":[0,0,0,0,0,0,0,0,0,0,0,0,0,0,0,0,0,0,0,0,0,0,0,0,0,0,0,0,0,0,0,0,0,0,0,0,0,0,0,0,0,0,0,0,0,0,0,0,0,0,0,0,0,0,0,0,0,0,0.0054,0.0054,0,-0.0036,-0.0037,-0.0038,-0.0095,-0.0096,-0.0096,-0.0096,-0.0205,-0.0208,-0.021,0,0,0,0,0,0,0,0,0,0,0,0,0,0.0104,0.0103,0.0055,0.0053,0.0052,-0.0036,-0.0037,-0.0038,-0.0095,-0.0096,-0.0096,-0.0096,-0.0204,-0.0207,-0.021,0,0,0,0,0,0,0,0,0,0,0,0,0,0.0054,0.0103,0.0055,0.0014,0.001,-0.0035,-0.0037,-0.0039,-0.0095,-0.0096,-0.0096,-0.0096,-0.0203,-0.0207,-0.0211,-0.0229,0,0,-0.0223,-0.0225,0,0,0,0,0,0,0,0,0.0057,0.0052,0.0021,0.0017,0.0012,-0.0054,-0.006,-0.0103,-0.0095,-0.0057,-0.0096,-0.0096,-0.0155,-0.0163,-0.0181,-0.0234,-0.0239,-0.0224,-0.0226,-0.0228,-0.0229,0,0,0,0,0,0,0,0.006,0.0055,0.0017,0.002,0.0015,-0.0024,-0.0031,-0.0068,-0.0104,-0.006,-0.0064,-0.0072,-0.0158,-0.0177,-0.0184,-0.0241,-0.0223,-0.0227,-0.023,-0.0231,-0.0291,-0.0291,0,0,0,0,0,0,0.0078,0.0059,0.002,0.0015,0.0035,-0.0025,-0.0032,-0.0033,-0.0104,-0.0114,-0.0072,-0.0074,-0.017,-0.0179,-0.0188,-0.0181,-0.0228,-0.0232,-0.0234,-0.0292,-0.0291,-0.029,0,0,0,0,0,0,0.008,0.0076,0.0024,0.0035,0.0026,-0.0024,-0.0025,-0.0035,-0.005,-0.0112,-0.0123,-0.0076,-0.017,-0.0182,-0.0202,-0.0187,-0.0233,-0.0237,-0.0293,-0.0292,-0.0291,-0.0189,0,0,0,0,0,0,0.0082,0.0077,0.0082,0.0037,0.0026,0.0009,-0.0025,-0.0036,-0.0054,-0.0058,-0.012,-0.013,-0.0171,-0.0195,-0.0206,-0.0193,-0.024,-0.0294,-0.0293,-0.0291,-0.0193,-0.0184,-0.0176,0,0,0,0,0,0.0084,0.0093,0.0083,0.0078,0.0035,0.001,0.0001,-0.0038,-0.0053,-0.0054,-0.0087,-0.0128,-0.0193,-0.0197,-0.021,-0.0199,-0.0295,-0.0293,-0.0291,-0.0197,-0.0186,-0.0176,0,0,0,0,0,0,0.011,0.0087,0.0075,0.0074,0.0051,0.0001,-0.0005,-0.0029,-0.0058,-0.0057,-0.0117,-0.0129,-0.0144,-0.0183,-0.0186,-0.0211,-0.0252,-0.0252,-0.0176,-0.0166,-0.0158,-0.0133,-0.0244,0,0,0,0,0,0.0121,0.0129,0.0093,0.0096,0.0087,0.0044,0.0029,0.0009,-0.0023,-0.0036,-0.0076,-0.0115,-0.0148,-0.0164,-0.02,-0.0211,-0.0249,-0.0213,-0.0205,-0.0197,-0.0185,-0.0213,-0.0205,-0.0284,-0.0284,-0.0284,0,0,0.013,0.0121,0.0122,0.0104,0.0081,0.0074,0.0034,0.0024,0.0025,-0.0043,-0.0049,-0.0089,-0.0144,-0.0156,-0.0166,-0.0185,-0.0198,-0.0195,-0.0188,-0.018,-0.021,-0.0202,-0.0195,-0.0283,-0.0283,-0.0283,0,0,0.0154,0.0147,0.0158,0.0146,0.0127,0.0104,0.0107,0.0071,0.0062,0.0051,0.0006,-0.0016,-0.007,-0.0099,-0.0124,-0.0091,-0.0154,-0.0107,-0.0044,-0.007,-0.0063,-0.0058,-0.0106,-0.0106,-0.0101,-0.0101,-0.01,0,0.0168,0.0176,0.0156,0.0163,0.0164,0.0124,0.0136,0.0118,0.0084,0.0089,0.0065,-0.0002,-0.0043,-0.0061,-0.0041,-0.0072,-0.0103,-0.0076,-0.0058,-0.0053,-0.005,-0.01,-0.0101,-0.0096,-0.0096,-0.0097,-0.0097,0,0.0193,0.0202,0.0209,0.0211,0.021,0.0216,0.0197,0.0201,0.0187,0.0165,0.0151,0.0092,0.0056,0.0038,0.0012,0.0018,-0.0019,-0.0044,-0.0079,-0.0035,-0.0092,-0.0095,-0.0088,-0.009,-0.0092,-0.0093,0,0,0.0223,0.0228,0.0232,0.025,0.0243,0.025,0.0267,0.0272,0.0288,0.0249,0.0272,0.0209,0.0178,0.0149,0.0102,0.0085,0.0087,0.0049,0.0045,0.0009,0.0018,-0.0016,-0.0023,0.007,0.0071,0.0071,-0.0036,0,0.0251,0.0289,0.0281,0.0319,0.0338,0.0328,0.0356,0.0361,0.0343,0.0357,0.0305,0.0299,0.0217,0.0219,0.0183,0.0125,0.0086,0.0117,-0.0026,-0.0031,-0.0059,-0.0025,0.0009,-0.0083,-0.0039,-0.004,-0.004,0,0.0274,0.0307,0.0357,0.04,0.0409,0.0433,0.048,0.0496,0.0499,0.0492,0.0457,0.0413,0.0386,0.0322,0.0199,0.0226,0.0134,0.0069,0.0063,-0.0003,-0.0068,-0.0119,-0.0091,-0.0046,-0.0046,-0.0045,-0.0045,0,0.0318,0.0355,0.0411,0.0422,0.0463,0.0506,0.0537,0.0549,0.0592,0.0591,0.0613,0.0531,0.0527,0.04,0.026,0.0241,0.0131,0.0076,-0.0063,-0.0069,-0.0086,-0.0092,-0.0016,-0.0016,-0.0016,-0.0016,-0.0015,0,0.0353,0.0401,0.0444,0.0475,0.0569,0.0579,0.0656,0.0673,0.0721,0.0777,0.0695,0.0706,0.0556,0.0469,0.0309,0.0123,0.0152,-0.0044,-0.0088,-0.0052,-0.0053,-0.0057,-0.006,-0.002,-0.0019,-0.0018,-0.0017,0,0.0398,0.0421,0.0492,0.0558,0.0592,0.067,0.0765,0.0816,0.0839,0.0916,0.0941,0.0878,0.0755,0.0569,0.0382,0.0198,0.0022,-0.0059,-0.0013,-0.0049,-0.0184,-0.0181,-0.0239,-0.024,-0.0242,-0.0243,-0.0244,0,0.0421,0.0458,0.0555,0.0621,0.0664,0.0764,0.0839,0.0892,0.0936,0.1002,0.1047,0.0988,0.0914,0.0609,0.0333,0.0042,0.001,-0.0143,-0.0183,-0.0165,-0.0202,-0.0197,-0.0191,-0.0179,-0.0179,-0.018,-0.018,0,0.0463,0.05,0.0563,0.0702,0.08,0.0886,0.0982,0.1033,0.1094,0.1131,0.1168,0.1142,0.0907,0.0638,0.0273,0.0069,-0.0092,-0.0164,-0.0135,-0.0122,-0.0115,-0.015,-0.0145,-0.0183,-0.0183,-0.0183,-0.0183,-0.0182,0.0495,0.056,0.0647,0.0772,0.0898,0.0988,0.1047,0.1114,0.1181,0.1248,0.1222,0.1168,0.093,0.0443,0.0172,-0.0112,-0.0133,-0.0271,-0.0266,-0.0262,-0.023,-0.0226,-0.0311,-0.0311,-0.0311,-0.0312,-0.0312,0,0.0513,0.06,0.0712,0.085,0.0953,0.104,0.1138,0.1153,0.1207,0.1276,0.129,0.0979,0.0719,0.0473,0.006,-0.0222,-0.0228,-0.0309,-0.0245,-0.0241,-0.0238,-0.0201,-0.0276,-0.0276,-0.0277,-0.0277,0,0,0.0542,0.0618,0.0667,0.083,0.0969,0.111,0.1167,0.1183,0.1215,0.12,0.1189,0.1139,0.0809,0.0497,0.0169,-0.0029,-0.0079,-0.0086,-0.0092,0.0027,0.0035,-0.0199,-0.0137,0,0,0,0,0]}],[{"header":{"parameterUnit":"m.s-1","parameterCategory":2,"la1":30.2991,"la2":30.254,"lo1":-89.0895,"lo2":-89.0444,"dy":0.0017,"dx":0.0017,"nx":28,"ny":28,"refTime":"2023-03-29T21:00:00:Z","depth":"4","parameterNumber":2,"parameterNumberName":"U-component_of_CURRENTS"},"data":[0,0,0,0,0,0,0,0,0,0,0,0,0,0,0,0,0,0,0,0,0,0,0,0,0,0,0,0,0,0,0,0,0,0,0,0,0,0,0,0,0,0,0,0,0,0,0,0,0,0,0,0,0,0,0,0,0,0,0.1123,0.1123,0,0.1145,0.1145,0.1145,0.1195,0.1196,0.1197,0.1198,0.1279,0.1281,0.1282,0,0,0,0,0,0,0,0,0,0,0,0,0,0.1105,0.1105,0.1123,0.1123,0.1124,0.1145,0.1145,0.1146,0.1195,0.1197,0.1198,0.1199,0.1279,0.128,0.1282,0,0,0,0,0,0,0,0,0,0,0,0,0,0.1119,0.1105,0.1123,0.1151,0.1153,0.1145,0.1145,0.1146,0.1195,0.1197,0.1198,0.1199,0.1278,0.128,0.1282,0.1264,0,0,0.1288,0.1289,0,0,0,0,0,0,0,0,0.1118,0.1119,0.1146,0.1149,0.1152,0.1168,0.1168,0.1188,0.1195,0.118,0.1198,0.12,0.1246,0.1251,0.1252,0.1268,0.1272,0.1288,0.1289,0.129,0.129,0,0,0,0,0,0,0,0.1117,0.1119,0.1132,0.1146,0.115,0.1155,0.1159,0.1172,0.1206,0.1181,0.1185,0.1186,0.1248,0.125,0.1254,0.1273,0.1288,0.129,0.1291,0.1291,0.1371,0.1372,0,0,0,0,0,0,0.1112,0.1118,0.1132,0.1133,0.1137,0.1154,0.1158,0.1162,0.1205,0.1212,0.1184,0.1188,0.1246,0.1252,0.1257,0.1346,0.129,0.1292,0.1293,0.137,0.1371,0.1372,0,0,0,0,0,0,0.1112,0.1113,0.1131,0.1125,0.1128,0.1153,0.1157,0.1162,0.1202,0.1206,0.1215,0.1224,0.1247,0.1255,0.1306,0.1345,0.1292,0.1294,0.1368,0.137,0.1371,0.1454,0,0,0,0,0,0,0.1111,0.1113,0.113,0.1125,0.1128,0.1151,0.1155,0.1161,0.1197,0.1203,0.1242,0.1249,0.1249,0.1303,0.1307,0.1347,0.1296,0.1367,0.1369,0.1371,0.145,0.1459,0.1466,0,0,0,0,0,0.1111,0.1118,0.1131,0.1133,0.1145,0.1152,0.1155,0.1177,0.1198,0.1219,0.1251,0.125,0.1317,0.1305,0.1311,0.1352,0.1366,0.1369,0.1371,0.1447,0.1457,0.1465,0,0,0,0,0,0,0.1118,0.1123,0.1138,0.1148,0.1164,0.1161,0.1183,0.1198,0.1237,0.1257,0.1266,0.1275,0.1337,0.1325,0.1312,0.1376,0.134,0.1343,0.1396,0.1405,0.1413,0.1417,0.1297,0,0,0,0,0,0.1127,0.1136,0.1145,0.1157,0.117,0.1186,0.1199,0.1216,0.1238,0.1259,0.1286,0.1312,0.134,0.1361,0.138,0.1414,0.1414,0.1441,0.1448,0.1455,0.146,0.1495,0.1507,0.1379,0.1379,0.1379,0,0,0.1134,0.1136,0.1146,0.116,0.1177,0.1196,0.1199,0.123,0.1253,0.126,0.1319,0.1348,0.1356,0.1403,0.1427,0.1405,0.1491,0.1458,0.1464,0.1465,0.1499,0.1512,0.1523,0.1381,0.138,0.138,0,0,0.114,0.1161,0.1173,0.1187,0.1215,0.1226,0.1245,0.1271,0.1299,0.1346,0.1364,0.1416,0.1451,0.1469,0.1478,0.1534,0.1535,0.1546,0.1588,0.1623,0.1634,0.1644,0.1664,0.1675,0.1544,0.1544,0.1545,0,0.1152,0.1166,0.118,0.1193,0.1209,0.1245,0.1268,0.1292,0.1335,0.1369,0.1378,0.1464,0.1477,0.1533,0.1557,0.1553,0.1573,0.1557,0.1635,0.1645,0.1653,0.1671,0.1682,0.1549,0.1548,0.1548,0.1547,0,0.116,0.1184,0.1195,0.1225,0.1246,0.1273,0.1303,0.1349,0.1393,0.1424,0.1509,0.1534,0.1586,0.16,0.1599,0.1672,0.1666,0.1648,0.1616,0.1672,0.1686,0.1696,0.1555,0.1553,0.1552,0.1551,0,0,0.1153,0.1194,0.1202,0.1223,0.1268,0.1282,0.1335,0.1392,0.1444,0.1505,0.1574,0.1631,0.1672,0.1684,0.1701,0.1732,0.1811,0.1727,0.1727,0.1754,0.1896,0.1744,0.174,0.1822,0.1824,0.1826,0.1884,0,0.1163,0.1191,0.1211,0.1254,0.1276,0.1322,0.1369,0.1428,0.1485,0.1564,0.162,0.1703,0.1694,0.1749,0.1777,0.1817,0.1841,0.1796,0.1831,0.1832,0.1696,0.1747,0.1832,0.1891,0.1893,0.1895,0.1896,0,0.1162,0.1183,0.1222,0.1276,0.1294,0.1332,0.1419,0.1467,0.1576,0.1632,0.1721,0.1774,0.1864,0.1837,0.192,0.1903,0.1906,0.1915,0.1917,0.1751,0.1697,0.1821,0.1914,0.1912,0.1911,0.191,0.1909,0,0.1135,0.1188,0.1221,0.1237,0.1307,0.1351,0.141,0.1505,0.1556,0.1703,0.1763,0.1869,0.1946,0.1975,0.1986,0.1985,0.2045,0.2037,0.1894,0.1883,0.1968,0.1956,0.2073,0.2073,0.2073,0.2073,0.2073,0,0.1114,0.1142,0.1222,0.1236,0.13,0.1358,0.144,0.1518,0.1627,0.1686,0.1813,0.1852,0.1991,0.2027,0.202,0.1976,0.207,0.1909,0.189,0.2,0.1992,0.1975,0.1963,0.2075,0.2075,0.2074,0.2074,0,0.1058,0.1114,0.1152,0.1243,0.1285,0.1333,0.1448,0.1486,0.1626,0.1703,0.1764,0.1896,0.196,0.2022,0.2082,0.2011,0.1988,0.1934,0.2044,0.203,0.1803,0.1794,0.1821,0.1816,0.1812,0.1809,0.1806,0,0.1032,0.1048,0.1146,0.1159,0.1203,0.129,0.1335,0.1484,0.1508,0.1674,0.1678,0.1821,0.1882,0.1848,0.1923,0.1923,0.1882,0.1872,0.1844,0.1799,0.1779,0.1777,0.1774,0.1799,0.1798,0.1797,0.1796,0,0.0962,0.1005,0.1019,0.1064,0.1113,0.1164,0.1239,0.1259,0.1407,0.1549,0.1577,0.1632,0.1694,0.1752,0.1771,0.1746,0.1892,0.1829,0.1838,0.1812,0.1772,0.1757,0.1759,0.1782,0.1784,0.1785,0.1786,0,0.0898,0.0883,0.0903,0.093,0.0979,0.0991,0.1071,0.1103,0.1183,0.1371,0.1365,0.1502,0.1652,0.1653,0.1638,0.1646,0.1636,0.1587,0.1608,0.1625,0.1533,0.1451,0.1352,0,0,0,0,0,0.081,0.0757,0.0761,0.0769,0.0807,0.0853,0.0957,0.1035,0.1195,0.1173,0.1276,0.1318,0.1381,0.1441,0.1414,0.1543,0.1627,0.1502,0.1577,0.1703,0.172,0.1628,0,0,0,0,0,0,0.0732,0.0706,0.0703,0.0627,0.0606,0.0651,0.0721,0.0841,0.0842,0.1017,0.1056,0.1211,0.1284,0.1372,0.1374,0.1396,0.1411,0.1599,0.1595,0.1694,0.1709,0.1722,0.1634,0,0,0,0,0]},{"header":{"parameterUnit":"m.s-1","parameterCategory":2,"la1":30.2991,"la2":30.254,"lo1":-89.0895,"lo2":-89.0444,"dy":0.0017,"dx":0.0017,"nx":28,"ny":28,"refTime":"2023-03-29T21:00:00:Z","depth":"4","parameterNumber":3,"parameterNumberName":"V-component_of_CURRENTS"},"data":[0,0,0,0,0,0,0,0,0,0,0,0,0,0,0,0,0,0,0,0,0,0,0,0,0,0,0,0,0,0,0,0,0,0,0,0,0,0,0,0,0,0,0,0,0,0,0,0,0,0,0,0,0,0,0,0,0,0,-0.006,-0.0061,0,-0.0131,-0.0132,-0.0132,-0.0175,-0.0176,-0.0176,-0.0176,-0.0279,-0.0282,-0.0284,0,0,0,0,0,0,0,0,0,0,0,0,0,-0.0008,-0.0008,-0.006,-0.0061,-0.0062,-0.0131,-0.0132,-0.0133,-0.0175,-0.0176,-0.0176,-0.0176,-0.0278,-0.0281,-0.0284,0,0,0,0,0,0,0,0,0,0,0,0,0,-0.0049,-0.0008,-0.006,-0.0092,-0.0096,-0.013,-0.0132,-0.0133,-0.0175,-0.0176,-0.0176,-0.0176,-0.0277,-0.0281,-0.0285,-0.0301,0,0,-0.0296,-0.0298,0,0,0,0,0,0,0,0,-0.0047,-0.0051,-0.0086,-0.009,-0.0094,-0.0145,-0.0151,-0.0191,-0.0175,-0.0145,-0.0176,-0.0177,-0.0237,-0.0244,-0.0256,-0.0306,-0.031,-0.0297,-0.0299,-0.0301,-0.0302,0,0,0,0,0,0,0,-0.0044,-0.0049,-0.0088,-0.0087,-0.0092,-0.0118,-0.0124,-0.0159,-0.0189,-0.0148,-0.0151,-0.0159,-0.024,-0.0252,-0.0259,-0.0312,-0.0297,-0.03,-0.0302,-0.0304,-0.0405,-0.0405,0,0,0,0,0,0,-0.0033,-0.0046,-0.0086,-0.009,-0.0071,-0.0118,-0.0125,-0.0128,-0.0188,-0.0197,-0.0158,-0.0161,-0.0246,-0.0254,-0.0263,-0.0291,-0.0301,-0.0304,-0.0306,-0.0404,-0.0405,-0.0405,0,0,0,0,0,0,-0.0031,-0.0036,-0.0083,-0.007,-0.0078,-0.0119,-0.0122,-0.0129,-0.0144,-0.0196,-0.0206,-0.0166,-0.0246,-0.0257,-0.0292,-0.0296,-0.0306,-0.0309,-0.0404,-0.0405,-0.0405,-0.0345,0,0,0,0,0,0,-0.0029,-0.0034,-0.0035,-0.0069,-0.0078,-0.01,-0.0122,-0.013,-0.0149,-0.0152,-0.0206,-0.0216,-0.0247,-0.0286,-0.0296,-0.0301,-0.0312,-0.0403,-0.0404,-0.0405,-0.0347,-0.0344,-0.0341,0,0,0,0,0,-0.0027,-0.0029,-0.0034,-0.004,-0.0077,-0.01,-0.0107,-0.0138,-0.0149,-0.0153,-0.0188,-0.0214,-0.0298,-0.0289,-0.0301,-0.0307,-0.0403,-0.0404,-0.0405,-0.0348,-0.0344,-0.0341,0,0,0,0,0,0,-0.0012,-0.0034,-0.0041,-0.005,-0.007,-0.0108,-0.0118,-0.0135,-0.0166,-0.017,-0.0216,-0.0228,-0.0262,-0.0294,-0.0282,-0.034,-0.0357,-0.036,-0.031,-0.0307,-0.0304,-0.0284,-0.0315,0,0,0,0,0,-0.0006,-0.0008,-0.0035,-0.0041,-0.005,-0.0082,-0.0096,-0.0112,-0.0143,-0.0157,-0.0194,-0.0237,-0.0274,-0.0296,-0.0334,-0.0362,-0.0394,-0.0376,-0.0374,-0.0371,-0.0363,-0.0419,-0.042,-0.0408,-0.0408,-0.0408,0,0,-0.0004,-0.0014,-0.0018,-0.0038,-0.0057,-0.0065,-0.0091,-0.0108,-0.0115,-0.0164,-0.0189,-0.0228,-0.028,-0.0311,-0.033,-0.0338,-0.039,-0.0372,-0.0369,-0.0363,-0.042,-0.0421,-0.0422,-0.0409,-0.0409,-0.0409,0,0,0.0003,-0.0007,-0.0006,-0.0017,-0.0037,-0.0055,-0.0056,-0.0089,-0.0104,-0.0127,-0.0168,-0.0204,-0.026,-0.0297,-0.0323,-0.033,-0.0372,-0.0347,-0.0317,-0.0371,-0.0372,-0.0373,-0.0403,-0.0408,-0.0346,-0.0346,-0.0346,0,0.0008,0.0006,-0.0011,-0.0011,-0.002,-0.0045,-0.0047,-0.0064,-0.0103,-0.0117,-0.0127,-0.0211,-0.0252,-0.0295,-0.0295,-0.0322,-0.0353,-0.0321,-0.0365,-0.0367,-0.037,-0.0401,-0.0406,-0.0343,-0.0344,-0.0344,-0.0344,0,0.0015,0.0015,0.0014,0.001,-0.0001,-0.0006,-0.0027,-0.0038,-0.0056,-0.0079,-0.012,-0.0172,-0.0222,-0.0244,-0.0269,-0.0309,-0.0324,-0.0353,-0.0367,-0.0367,-0.04,-0.0407,-0.0339,-0.034,-0.0341,-0.0342,0,0,0.0023,0.002,0.0021,0.002,0.0011,-0.0001,-0.0001,-0.0021,-0.0031,-0.0062,-0.0084,-0.014,-0.0168,-0.0199,-0.0242,-0.0283,-0.0321,-0.0316,-0.0321,-0.0334,-0.0424,-0.0375,-0.0378,-0.0359,-0.036,-0.0361,-0.0436,0,0.0034,0.0038,0.0036,0.0037,0.0033,0.0022,0.0019,0.0002,-0.0019,-0.0045,-0.009,-0.0127,-0.0151,-0.0175,-0.0218,-0.0301,-0.0338,-0.0297,-0.0433,-0.0437,-0.0383,-0.0384,-0.0365,-0.0441,-0.0443,-0.0444,-0.0445,0,0.0037,0.0042,0.0047,0.0044,0.0041,0.0043,0.0028,0.0024,-0.0006,-0.0021,-0.0053,-0.009,-0.0142,-0.0168,-0.0286,-0.0259,-0.033,-0.0389,-0.0394,-0.0373,-0.04,-0.0448,-0.0458,-0.0457,-0.0456,-0.0455,-0.0454,0,0.0035,0.0044,0.0048,0.0048,0.0046,0.0048,0.0046,0.0027,0.0021,-0.0004,-0.0011,-0.0078,-0.0108,-0.0206,-0.0305,-0.0304,-0.0438,-0.0461,-0.0481,-0.0479,-0.0527,-0.0525,-0.0547,-0.0547,-0.0547,-0.0546,-0.0546,0,0.0036,0.0036,0.0049,0.0049,0.0053,0.0051,0.0049,0.0044,0.0033,0.0037,0.0001,-0.0005,-0.012,-0.02,-0.0302,-0.04,-0.0439,-0.0468,-0.0495,-0.0499,-0.0493,-0.0531,-0.0529,-0.0549,-0.0549,-0.0548,-0.0548,0,0.0018,0.003,0.0031,0.0042,0.0049,0.0047,0.0059,0.0062,0.0058,0.0065,0.0065,0.0033,-0.004,-0.0161,-0.0316,-0.038,-0.0497,-0.0528,-0.0504,-0.053,-0.0501,-0.0494,-0.0549,-0.0548,-0.0547,-0.0546,-0.0545,0,0.0004,0.0008,0.0024,0.0038,0.0044,0.0053,0.007,0.0072,0.0092,0.0099,0.0114,0.0062,0.0032,-0.0128,-0.0269,-0.0448,-0.0473,-0.0535,-0.0524,-0.048,-0.0502,-0.0497,-0.0492,-0.0544,-0.0544,-0.0544,-0.0543,0,-0.0015,-0.0007,0.0002,0.0049,0.007,0.0091,0.0125,0.0141,0.0166,0.0139,0.0183,0.0121,0.0048,-0.0076,-0.0213,-0.0351,-0.0496,-0.0526,-0.0529,-0.0518,-0.0475,-0.0496,-0.0492,-0.054,-0.054,-0.0541,-0.0541,0,-0.0021,-0.0014,0.0031,0.0072,0.0108,0.017,0.0159,0.0213,0.0232,0.0246,0.0254,0.018,0.0122,-0.0027,-0.0163,-0.0278,-0.0305,-0.0349,-0.0361,-0.0367,-0.0289,-0.0206,-0.0205,0,0,0,0,0,-0.0007,0.0035,0.0065,0.0134,0.0174,0.0212,0.0237,0.023,0.0238,0.0286,0.0281,0.0225,0.0088,0.0023,-0.0077,-0.0166,-0.0348,-0.029,-0.041,-0.0522,-0.0526,-0.0461,0,0,0,0,0,0,0.0009,0.0053,0.0084,0.0205,0.0263,0.0328,0.0347,0.0336,0.0367,0.0348,0.0282,0.0216,0.0077,0.0167,-0.0063,-0.0104,-0.0192,-0.0372,-0.0374,-0.052,-0.0523,-0.0526,-0.0461,0,0,0,0,0]}]]